#timestamp,LO_Frequency,Hit,StdDev 
1507647615.8,286046998.2,N
1507647635.7,286046993.3,N
1507647655.5,286046994.8,N
1507647675.3,286046995.4,N
1507647695.2,286046998.4,N
1507647715.9,286047001.0,N
1507647735.7,286047000.9,N
1507647755.6,286046999.6,N
1507647775.4,286046994.9,N
1507647795.2,286046994.4,N
1507647815.1,286046992.5,N
1507647816.0,286046992.5,N
1507647835.8,286046993.9,N
1507647855.6,286046997.9,N
1507647875.4,286046997.7,N
1507647895.3,286046999.0,N
1507647915.1,286046997.7,N
1507647935.8,286046995.8,N
1507647955.7,286046999.5,N
1507647975.5,286046995.0,N
1507647995.3,286046996.1,N
1507648015.2,286046997.5,N
1507648035.9,286046996.5,N
1507648055.7,286047000.7,N
1507648075.6,286047001.0,N
1507648095.4,286047002.4,N
1507648115.2,286047002.6,N
1507648135.1,286047003.2,N
1507648136.0,286047003.2,N
1507648155.8,286047007.1,N
1507648175.6,286047007.4,N
1507648195.5,286047005.3,N
1507648215.3,286047002.5,N
1507648235.1,286047002.0,N
1507648255.8,286047005.9,N
1507648275.7,286046998.3,N
1507648295.5,286046998.7,N
1507648315.3,286046999.0,N
1507648335.2,286046996.5,N
1507648355.9,286046997.6,N
1507648375.7,286046992.2,N
1507648395.6,286046993.9,N
1507648415.4,286046995.6,N
1507648435.2,286046996.4,N
1507648455.1,286047000.0,N
1507648456.0,286047000.0,N
1507648475.8,286047004.3,N
1507648495.6,286047001.8,N
1507648515.5,286047006.7,N
1507648535.3,286047006.6,N
1507648555.1,286047002.7,N
1507648575.8,286046999.1,N
1507648595.7,286047004.0,N
1507648615.5,286047007.0,N
1507648635.3,286047004.9,N
1507648655.2,286047004.7,N
1507648675.0,286047008.4,N
1507648675.9,286047008.4,N
1507648695.7,286047008.5,N
1507648715.6,286047008.5,N
1507648735.4,286047010.3,N
1507648755.2,286047008.5,N
1507648775.1,286047008.3,N
1507648776.0,286047008.3,N
1507648795.8,286047007.6,N
1507648815.6,286047007.3,N
1507648835.5,286047005.0,N
1507648855.3,286047008.6,N
1507648875.7,286047008.3,N
1507648895.6,286047008.7,N
1507648915.4,286047005.1,N
1507648935.2,286047004.3,N
1507648955.1,286047004.5,N
1507648956.0,286047004.5,N
1507648975.8,286047003.5,N
1507648995.6,286047003.3,N
1507649015.5,286047005.2,N
1507649035.3,286047007.8,Y
1507649055.1,286047005.9,P
1507649075.9,286047003.2,P
1507649095.7,286047003.9,N
1507649115.5,286047004.2,Y
1507649135.4,286046999.2,P
1507649155.2,286046998.3,N
1507649175.0,286046999.6,N
1507649175.9,286046999.6,N
1507649195.8,286046998.8,N
1507649215.6,286046999.5,N
1507649235.4,286046998.2,N
1507649255.3,286047001.2,N
1507649275.1,286047003.5,N
1507649276.0,286047003.5,N
1507649295.8,286047003.2,N
1507649315.7,286047004.8,N
1507649335.5,286047003.9,N
1507649355.3,286047004.3,N
1507649375.1,286046998.6,N
1507649395.9,286047002.7,N
1507649415.7,286047001.0,N
1507649435.5,286046999.9,N
1507649455.4,286046999.9,N
1507649475.2,286047000.3,N
1507649495.0,286046998.8,N
1507649495.9,286046998.8,N
1507649515.8,286046995.7,N
1507649535.6,286046999.2,N
1507649555.4,286046998.9,N
1507649575.3,286046999.7,N
1507649595.1,286047002.0,N
1507649596.0,286047002.0,N
1507649615.8,286047007.4,Y
1507649635.7,286047009.2,P
1507649655.5,286047003.5,N
1507649675.3,286047003.1,N
1507649695.2,286047004.4,N
1507649715.9,286047003.3,N
1507649735.7,286047005.1,N
1507649755.5,286047004.6,N
1507649775.4,286047008.2,Y
1507649795.2,286047000.1,P
1507649815.0,286047002.4,N
1507649816.0,286047002.4,N
1507649835.8,286047000.5,N
1507649855.6,286046998.3,N
1507649875.4,286047002.1,N
1507649895.3,286047003.5,N
1507649915.1,286047007.7,Y
1507649935.8,286047006.6,P
1507649955.7,286047008.8,P
1507649975.5,286047005.7,N
1507649995.3,286047005.7,N
1507650015.2,286047009.9,Y
1507650035.0,286047005.1,P
1507650035.9,286047005.1,P
1507650055.7,286047003.1,P
1507650075.6,286047001.6,N
1507650095.4,286047002.8,N
1507650115.2,286047003.8,N
1507650135.1,286047009.1,Y
1507650136.0,286047009.1,P
1507650155.8,286047001.4,N
1507650175.6,286046999.5,N
1507650195.5,286047000.7,N
1507650215.3,286046998.3,N
1507650235.1,286046996.5,N
1507650255.9,286047001.9,N
1507650275.7,286047001.1,N
1507650295.5,286046999.0,N
1507650315.4,286047000.5,N
1507650335.2,286046998.3,N
1507650355.0,286046994.9,N
1507650355.9,286046994.9,N
1507650375.8,286046993.7,N
1507650395.6,286046995.1,N
1507650415.4,286046998.0,N
1507650435.3,286046998.3,N
1507650455.1,286046996.7,N
1507650456.0,286046996.7,N
1507650475.8,286046993.8,N
1507650495.6,286046997.3,N
1507650515.5,286046993.8,N
1507650535.3,286046994.7,N
1507650555.1,286046993.1,N
1507650575.9,286046992.9,N
1507650595.7,286046995.3,N
1507650615.5,286046995.9,N
1507650635.4,286046996.8,N
1507650655.2,286046997.9,N
1507650675.0,286046997.5,N
1507650675.9,286046997.5,N
1507650695.8,286046996.7,N
1507650715.6,286046997.5,N
1507650735.4,286046999.2,N
1507650755.3,286046998.7,N
1507650775.1,286046998.6,N
1507650776.0,286046998.6,N
1507650795.8,286047000.4,N
1507650815.7,286047002.7,N
1507650835.5,286047001.3,N
1507650855.3,286047002.6,N
1507650875.1,286047002.9,N
1507650895.9,286047002.5,N
1507650915.7,286047000.7,N
1507650935.5,286046996.8,N
1507650955.4,286046993.5,N
1507650975.2,286046994.9,N
1507650995.0,286046995.1,N
1507650995.9,286046995.1,N
1507651015.8,286046993.6,N
1507651035.6,286046995.9,N
1507651055.4,286046996.7,N
1507651075.3,286046999.3,N
1507651095.1,286046996.6,N
1507651096.0,286046996.6,N
1507651115.8,286046997.5,N
1507651135.7,286046999.2,N
1507651155.5,286046999.4,N
1507651175.3,286046999.2,N
1507651195.2,286046999.5,N
